Search :
Type the text to search here and press Enter.
Separate search terms by a space; they will all be searched individually in all fields of the database.

Click on Search : to go to the advanced search page.
Mkt: Check this box if you want
to search in classified
instead of the database.

N Scale Model Trains Database

Engines, Rolling Stock, Structures, and Accessories

The Annual NSE Convention draws 100s of participants

N-Scale Model Trains

NSE Classifieds are up and running. Shop Here!

We are still running our promotion to give away free trains to folks who help us enter data. Details Here.

N-Scale Train Modeling is a hobby concerned with the recreation, display and operation of railway equipment in miniature. N-Scale is sometimes also referred to as N-Gauge.

N-Scale is a group of similar dimensional relationships including (but not limited to) 1/160, 1/150 and 1/148. All share in common a railroad gauge of 9mm (0.354 in). The earliest model trains to use this scale were made by Lone Star in the United Kingdom in their OOO (Treble-O) line. Interestingly, the Lone Star models use a dimensional relationship of 1/152. The first models to use a 1/160 scale were made by Arnold of Germany in the 1960s. The most common dimensional relationship in the United States and Europe is 1/160. Japanese manufacturers make a mix of 1/150 and 1/160 products but for the most part use 1/150. Model manufacturers in the United Kingdom prefer 1/148.

When it comes to track, N Scale always uses a standard 9mm distance between the two rails. The track height, however, can vary. Common heights are 0.08 inches high (Code 80) and 0.055 inches (Code 55). For narrow gauge modelers, track is 6.5mm between the rails (Z-Scale), but the dimensional ratio of the models is still typically 1/160, 1/150 or 1/148.

Worldwide, N Scale is the second most popular model railroading Scale after HO, but in certain geographical regions (Japan in particular) it exceeds even HO in popularity.
JavaScript is disabled in your browser. This page will not work properly.

Body Style:
Brand:
Production Type:
Manufacturer:
Road or Company Name:
Series Name:
Item Category:
Model Type:
Total items in collection: 68184. Total items on page 151

First Image Brand Stock Number Road or Company Name Reporting Marks Road or Reporting Number Prototype Original Retail Price Market Release Date ID
Atlas 39800 Undecorated Caboose, Cupola, Steel, C&O H:$12.22 2008-12-01 135216
Atlas 39801A Chesapeake & Ohio 90203 Caboose, Cupola, Steel, C&O $21.95 2008-12-01 109343
Atlas 39802A Chesapeake & Ohio 90238 Caboose, Cupola, Steel, C&O $21.95 2008-12-01 108980
Atlas 39803A Chessie System C&O 90241 Caboose, Cupola, Steel, C&O $21.95 2008-12-01 108981
Atlas 39804A Chessie System C&O 90256 Caboose, Cupola, Steel, C&O $21.95 2008-12-01 108982
Atlas 39805A Conrail 19065 Caboose, Cupola, Steel, C&O $21.95 2008-12-01 109011
Atlas 39806A Conrail 19334 Caboose, Cupola, Steel, C&O $21.95 2008-12-01 109012
Atlas 39807A Missouri Pacific 12013 Caboose, Cupola, Steel, C&O $21.95 2008-12-01 109013
Atlas 39808A Missouri Pacific 120120 Caboose, Cupola, Steel, C&O $21.95 2008-12-01 109014
Atlas 39809A Union Pacific UP 25214 Caboose, Cupola, Steel, C&O $21.95 2008-12-01 109015
Atlas 39810A Union Pacific UP 25304 Caboose, Cupola, Steel, C&O $21.95 2008-12-01 109016
Atlas 39811A Virginian 300 Caboose, Cupola, Steel, C&O $21.95 2008-12-01 109017
Atlas 39812A Virginian 307 Caboose, Cupola, Steel, C&O $21.95 2008-12-01 109018
Atlas 39813 Chesapeake & Ohio C&O 90203 Caboose, Cupola, Steel, C&O $21.95 H:$10.26 2008-12-01 109019
Atlas 39814 Chesapeake & Ohio C&O 90238 Caboose, Cupola, Steel, C&O $21.95 H:$9.95 2008-12-01 109020
Atlas 39815 Chicago & Eastern Illinois C&EI 3 Caboose, Cupola, Steel, C&O $21.95 H:$15.50 2008-12-01 109022
Atlas 39816 Chicago & Eastern Illinois C&EI 6 Caboose, Cupola, Steel, C&O $21.95 2008-12-01 109023
Atlas 39817 Chicago & North Western CNW 10802 Caboose, Cupola, Steel, C&O $21.95 2008-12-01 109262
Atlas 39818 Chicago & North Western CNW 10804 Caboose, Cupola, Steel, C&O $21.95 H:$12.50 2008-12-01 109263
Atlas 39819 Delaware & Hudson 35703 Caboose, Cupola, Steel, C&O $21.95 2008-12-01 109264
Atlas 39820 Delaware & Hudson 35704 Caboose, Cupola, Steel, C&O $21.95 H:$5.50 2008-12-01 109265
Atlas 39821 Jersey Central 91539 Caboose, Cupola, Steel, C&O $21.95 H:$19.80 2008-12-01 109266
Atlas 39822 Jersey Central 91545 Caboose, Cupola, Steel, C&O $21.95 H:$17.53 2008-12-01 109267
Atlas 39823 Pere Marquette 909 Caboose, Cupola, Steel, C&O $21.95 2008-12-01 109268
Atlas 39824 Pere Marquette 920 Caboose, Cupola, Steel, C&O $21.95 2008-12-01 109269
Atlas 39825 Reading 92850 Caboose, Cupola, Steel, C&O $21.95 2008-12-01 109270
Atlas 39826 Reading 92886 Caboose, Cupola, Steel, C&O $21.95 H:$10.50 2008-12-01 109271
Atlas 39827 Southern Pacific SP 92886 Caboose, Cupola, Steel, C&O $21.95 2008-12-01 109272
Atlas 39828 Southern Pacific SP 324 Caboose, Cupola, Steel, C&O $21.95 H:$5.99 2008-12-01 109273
Atlas 39829 Western Maryland WM 1814 Caboose, Cupola, Steel, C&O $21.95 2008-12-01 109274
Atlas 39830 Western Maryland WM 1818 Caboose, Cupola, Steel, C&O $21.95 2008-12-01 109275
Atlas 39831 Canadian National CN 79207 Caboose, Cupola, Steel, C&O $21.95 2008-12-01 135217
Atlas 39832 Canadian National CN 79240 Caboose, Cupola, Steel, C&O $21.95 H:$9.47 2008-12-01 109276
Atlas 39833 Chesapeake & Ohio C&O 3539 Caboose, Cupola, Steel, C&O $21.95 H:$13.63 2008-12-01 109277
Atlas 39834 Chesapeake & Ohio C&O 3559 Caboose, Cupola, Steel, C&O $21.95 H:$15.75 2008-12-01 109278
Atlas 39835 Erie ERIE 226 Caboose, Cupola, Steel, C&O $21.95 2008-12-01 109279
Atlas 39836 Erie ERIE 246 Caboose, Cupola, Steel, C&O $21.95 H:$15.00 2008-12-01 109280
Atlas 39837 Frisco SLSF 162 Caboose, Cupola, Steel, C&O $21.95 H:$58.35 2008-12-01 109281
Atlas 39838 Frisco SLSF 163 Caboose, Cupola, Steel, C&O $21.95 H:$15.50 2008-12-01 109282
Atlas 39839 Lackawanna 896 Caboose, Cupola, Steel, C&O $21.95 2008-12-01 109283
Atlas 39840 Lackawanna 910 Caboose, Cupola, Steel, C&O $21.95 2008-12-01 109284
Atlas 39841 Lehigh & Hudson River L&HR 11 Caboose, Cupola, Steel, C&O $21.95 H:$15.02 2008-12-01 109285
Atlas 39842 Lehigh & Hudson River L&HR 17 Caboose, Cupola, Steel, C&O $21.95 H:$15.29 2008-12-01 109286
Atlas 39843 Lehigh Valley LV 95003 Caboose, Cupola, Steel, C&O $21.95 H:$5.83 2008-12-01 109287
Atlas 39844 Lehigh Valley LV 95015 Caboose, Cupola, Steel, C&O $21.95 H:$12.26 2008-12-01 109288
Atlas 39845 Louisville & Nashville LN 906 Caboose, Cupola, Steel, C&O $21.95 H:$26.00 2008-12-01 109289
Atlas 39846 Louisville & Nashville LN 912 Caboose, Cupola, Steel, C&O $21.95 H:$29.50 2008-12-01 109290
Atlas 39847 New Jersey Transit 901 Caboose, Cupola, Steel, C&O $21.95 H:$25.00 2008-12-01 109291
Atlas 39848 New Jersey Transit 902 Caboose, Cupola, Steel, C&O $21.95 2008-12-01 109292
Atlas 39849 Chesapeake & Ohio C&O 90262 Caboose, Cupola, Steel, C&O $21.95 H:$7.75 2008-12-01 109293
Atlas 39850 Chesapeake & Ohio C&O 90288 Caboose, Cupola, Steel, C&O $21.95 H:$9.99 2008-12-01 109294
Atlas 39851 Conrail CR 19077 Caboose, Cupola, Steel, C&O $21.95 2008-12-01 109295
Atlas 39852 Conrail CR 19159 Caboose, Cupola, Steel, C&O $21.95 2008-12-01 109296
Atlas 39853 Southern Pacific SP 1163 Caboose, Cupola, Steel, C&O $21.95 H:$12.99 2008-12-01 109297
Atlas 39854 Southern Pacific SP 1200 Caboose, Cupola, Steel, C&O $21.95 H:$16.16 2008-12-01 109298
Atlas 39855 Union Pacific UP 25222 Caboose, Cupola, Steel, C&O $21.95 2008-12-01 109299
Atlas 39856 Union Pacific UP 25265 Caboose, Cupola, Steel, C&O $21.95 H:$16.00 2008-12-01 109300
Atlas 39857 Amtrak 14000 Caboose, Cupola, Steel, C&O $21.95 H:$14.99 2012-01-01 109301
Atlas 39858 Amtrak 14004 Caboose, Cupola, Steel, C&O $21.95 H:$12.99 2012-01-01 109302
Atlas 39859 Apalachicola Northern X10 Caboose, Cupola, Steel, C&O $21.95 H:$15.39 2012-01-01 109304
Atlas 39860 Apalachicola Northern X11 Caboose, Cupola, Steel, C&O $21.95 E:$16.00 2012-01-01 109305
Atlas 39861 Belt Railway of Chicago 217 Caboose, Cupola, Steel, C&O $21.95 H:$16.30 2012-01-01 109306
Atlas 39862 Belt Railway of Chicago 223 Caboose, Cupola, Steel, C&O $21.95 H:$15.59 2012-01-01 109307
Atlas 39863 Canadian Pacific CP 437482 Caboose, Cupola, Steel, C&O $21.95 2012-01-01 109308
Atlas 39864 Canadian Pacific CP 437486 Caboose, Cupola, Steel, C&O $21.95 2012-01-01 109309
Atlas 39865 Erie Lackawanna C186 Caboose, Cupola, Steel, C&O $21.95 H:$18.50 2012-01-01 109310
Atlas 39865 Erie Lackawanna EL C186 Caboose, Cupola, Steel, C&O $21.95 H:$18.50 2012-06-01 104583
Atlas 39866 Erie Lackawanna C201 Caboose, Cupola, Steel, C&O $21.95 H:$17.66 2012-01-01 109311
Atlas 39866 Erie Lackawanna EL C201 Caboose, Cupola, Steel, C&O $21.95 H:$17.66 2012-06-01 104584
Atlas 39867 Florida East Coast FEC 801 Caboose, Cupola, Steel, C&O $21.95 2012-01-01 109312
Atlas 39868 Florida East Coast FEC 805 Caboose, Cupola, Steel, C&O $21.95 H:$10.50 2012-01-01 109313
Atlas 39869 Illinois Terminal 962 Caboose, Cupola, Steel, C&O $21.95 2012-01-01 109314
Atlas 39870 Long Island Rail Road 1 Caboose, Cupola, Steel, C&O $21.95 2012-01-01 109315
Atlas 39871 Long Island Rail Road 5 Caboose, Cupola, Steel, C&O $21.95 2012-01-01 109316
Atlas 39872 Ferrocarriles Nacionales de México NDEM 44231 Caboose, Cupola, Steel, C&O $21.95 H:$16.43 2012-01-01 109317
Atlas 39873 Ferrocarriles Nacionales de México NDEM 44233 Caboose, Cupola, Steel, C&O $21.95 H:$16.87 2012-01-01 109318
Atlas 39874 Penn Central PC 22813 Caboose, Cupola, Steel, C&O $21.95 2012-01-01 109319
Atlas 39875 Penn Central PC 22874 Caboose, Cupola, Steel, C&O $21.95 2012-01-01 109320
Atlas 39876 Western Maryland WM 1803 Caboose, Cupola, Steel, C&O $21.95 E:$16.15 H:$12.95 2012-01-01 109321
Atlas 39877 Western Maryland WM 1828 Caboose, Cupola, Steel, C&O $21.95 E:$10.00 H:$15.36 C:$10.00 2012-01-01 109322
Atlas 50 001 203 Alaska Railroad ARR 1068 Caboose, Cupola, Steel, C&O $21.95 H:$24.95 2013-01-01 109323
Atlas 50 001 204 Alaska Railroad ARR 1077 Caboose, Cupola, Steel, C&O $21.95 H:$27.58 2013-01-01 109324
Atlas 50 001 205 Boston & Maine BM 462 Caboose, Cupola, Steel, C&O H:$19.73 2013-06-01 101139
Atlas 50 001 206 Boston & Maine BM 472 Caboose, Cupola, Steel, C&O H:$9.95 2013-06-01 101140
Atlas 50 001 207 Delaware & Hudson D&H 35706 Caboose, Cupola, Steel, C&O $21.95 H:$17.00 2013-01-01 109327
Atlas 50 001 208 Delaware & Hudson D&H 35872 Caboose, Cupola, Steel, C&O $21.95 2013-01-01 109328
Atlas 50 001 209 Grand Trunk Western DTI 114 Caboose, Cupola, Steel, C&O $21.95 2013-01-01 109329
Atlas 50 001 210 Grand Trunk Western DTI 153 Caboose, Cupola, Steel, C&O $21.95 2013-01-01 109330
Atlas 50 001 211 Norfolk Southern NS 367 Caboose, Cupola, Steel, C&O $21.95 E:$25.79 H:$22.51 2013-01-01 109331
Atlas 50 001 212 Norfolk Southern NS 371 Caboose, Cupola, Steel, C&O $21.95 2013-01-01 109332
Atlas 50 001 213 Providence & Worcester PW 3001 Caboose, Cupola, Steel, C&O $21.95 2013-01-01 109335
Atlas 50 001 214 Santa Fe ATSF 999952 Caboose, Cupola, Steel, C&O $21.95 H:$14.75 2013-01-01 109333
Atlas 50 001 215 Santa Fe ATSF 999961 Caboose, Cupola, Steel, C&O $21.95 H:$15.00 2013-01-01 109334
Atlas 50 001 216 Chesapeake & Ohio C&O 90209 Caboose, Cupola, Steel, C&O $21.95 H:$14.00 2013-01-01 109336
Atlas 50 001 217 Chesapeake & Ohio C&O 90215 Caboose, Cupola, Steel, C&O $21.95 H:$0.99 2013-01-01 109337
Atlas 50 001 218 Chesapeake & Ohio C&O 902155 Caboose, Cupola, Steel, C&O $21.95 2013-01-01 109338
Atlas 50 001 219 Chesapeake & Ohio C&O 90290 Caboose, Cupola, Steel, C&O $21.95 2013-01-01 109339
Atlas 50 001 220 Pere Marquette 901 Caboose, Cupola, Steel, C&O $21.95 H:$12.96 2013-01-01 109340
Atlas 50 001 221 Pere Marquette 905 Caboose, Cupola, Steel, C&O $21.95 2013-01-01 109342
Atlas 50 001 772 Baltimore & Ohio B&O C350 Caboose, Cupola, Steel, C&O 2014-02-01 135230
Atlas 50 001 773 Conrail CR 46114R Caboose, Cupola, Steel, C&O 2014-02-01 135231
Atlas 50 001 774 Conrail CR 46137R Caboose, Cupola, Steel, C&O 2014-02-01 135232
Atlas 50 001 775 Erie Lackawanna C119 Caboose, Cupola, Steel, C&O 2014-02-01 135233
Atlas 50 001 776 Erie Lackawanna C141 Caboose, Cupola, Steel, C&O 2014-02-01 135234
Atlas 50 001 777 Ferrocarril Del Pacifico FCP 15216 Caboose, Cupola, Steel, C&O H:$13.99 2014-02-01 135235
Atlas 50 001 778 Ferrocarril Del Pacifico FCP 15225 Caboose, Cupola, Steel, C&O 2014-02-01 135236
Atlas 50 001 779 Lehigh Valley 581 Caboose, Cupola, Steel, C&O E:$18.79 H:$18.49 2014-02-01 135237
Atlas 50 001 780 Lehigh Valley 582 Caboose, Cupola, Steel, C&O H:$13.35 2014-02-01 135238
Atlas 50 001 781 Missouri Pacific MP 910 Caboose, Cupola, Steel, C&O 2014-02-01 135239
Atlas 50 001 782 Missouri Pacific MP 921 Caboose, Cupola, Steel, C&O 2014-02-01 135240
Atlas 50 001 783 Monon 81506 Caboose, Cupola, Steel, C&O 2014-02-01 135241
Atlas 50 001 784 Monon 81508 Caboose, Cupola, Steel, C&O H:$12.95 2014-02-01 135242
Atlas 50 001 785 Norfolk & Western 518404 Caboose, Cupola, Steel, C&O 2014-02-01 135243
Atlas 50 001 786 Norfolk & Western 518407 Caboose, Cupola, Steel, C&O 2014-02-01 135244
Atlas 50 001 787 SOO Line 273 Caboose, Cupola, Steel, C&O H:$18.50 2014-02-01 135245
Atlas 50 001 788 SOO Line 274 Caboose, Cupola, Steel, C&O E:$39.99 2014-02-01 135246
Atlas 50 002 578 Undecorated Caboose, Cupola, Steel, C&O $16.95 2017-07-01 131376
Atlas 50 002 579 Algoma Central AC 9607 Caboose, Cupola, Steel, C&O $21.95 2016-01-01 110482
Atlas 50 002 580 Algoma Central AC 9609 Caboose, Cupola, Steel, C&O $21.95 2016-01-01 110483
Atlas 50 002 581 Black River & Western 34 Caboose, Cupola, Steel, C&O $21.95 2016-01-01 110484
Atlas 50 002 582 Delaware-Lackawanna GVT 4810 Caboose, Cupola, Steel, C&O $21.95 H:$18.00 2016-01-01 110485
Atlas 50 002 583 Family Lines SCL 0782 Caboose, Cupola, Steel, C&O $21.95 H:$16.99 2016-01-01 110486
Atlas 50 002 584 Family Lines SCL 0826 Caboose, Cupola, Steel, C&O $21.95 H:$19.99 2016-01-01 110487
Atlas 50 002 585 Jersey Central 91508 Caboose, Cupola, Steel, C&O $21.95 2016-01-01 110488
Atlas 50 002 586 Jersey Central 91513 Caboose, Cupola, Steel, C&O $21.95 2016-01-01 110489
Atlas 50 002 587 Lehigh Valley LV 95016 Caboose, Cupola, Steel, C&O $21.95 2016-01-01 110490
Atlas 50 002 588 Lehigh Valley LV 95067 Caboose, Cupola, Steel, C&O $21.95 H:$18.00 2016-01-01 110516
Atlas 50 002 589 Norfolk Southern NS 365 Caboose, Cupola, Steel, C&O $21.95 H:$12.00 2016-01-01 110517
Atlas 50 002 590 Norfolk Southern NS 367 Caboose, Cupola, Steel, C&O $21.95 2016-01-01 110518
Atlas 50 002 591 Reading Blue Mountain & Northern 477514 Caboose, Cupola, Steel, C&O $21.95 2016-01-01 110519
Atlas 50 002 592 Southern X255 Caboose, Cupola, Steel, C&O $21.95 2016-01-01 110520
Atlas 50 002 593 Southern X256 Caboose, Cupola, Steel, C&O $21.95 2016-01-01 110521
Atlas 50 002 594 Union Pacific 903002 Caboose, Cupola, Steel, C&O $21.95 2016-01-01 110522
Atlas 50 002 595 Union Pacific 903003 Caboose, Cupola, Steel, C&O $21.95 H:$22.36 2016-01-01 110523
Atlas 50 002 596 Union Railroad C-4 Caboose, Cupola, Steel, C&O $21.95 H:$12.95 2016-01-01 110524
Atlas 50 002 597 Union Railroad C-25 Caboose, Cupola, Steel, C&O $21.95 2016-01-01 110525
Atlas 50 003 318 Alaska Railroad ARR 1070 Caboose, Cupola, Steel, C&O $22.95 2017-07-01 131377
Atlas 50 003 319 Alaska Railroad ARR 1081 Caboose, Cupola, Steel, C&O $22.95 2017-07-01 131378
Atlas 50 003 320 Canadian National CN 79220 Caboose, Cupola, Steel, C&O $22.95 2017-07-01 131379
Atlas 50 003 321 Canadian National CN 79233 Caboose, Cupola, Steel, C&O $22.95 2017-07-01 131380
Atlas 50 003 322 Chesapeake & Ohio C&O 90210 Caboose, Cupola, Steel, C&O $22.95 2017-07-01 131381
Atlas 50 003 323 Chesapeake & Ohio C&O 90265 Caboose, Cupola, Steel, C&O $22.95 2017-07-01 131382
Atlas 50 003 324 Chessie System C&O 90221 Caboose, Cupola, Steel, C&O $22.95 2017-07-01 131383
Atlas 50 003 325 Chessie System C&O 90298 Caboose, Cupola, Steel, C&O $22.95 2017-07-01 131384
Atlas 50 003 326 Missouri Pacific 13004 Caboose, Cupola, Steel, C&O $22.95 2017-07-01 131385
Atlas 50 003 327 Missouri Pacific 13041 Caboose, Cupola, Steel, C&O $22.95 2017-07-01 131386
Atlas 50 003 328 Chessie System C&O 3664 Caboose, Cupola, Steel, C&O $22.95 2017-07-01 131387
Atlas 50 003 329 New York Ontario & Western NYO&W 8301 Caboose, Cupola, Steel, C&O $22.95 2017-07-01 131388
Atlas 50 003 330 New York Ontario & Western NYO&W 8304 Caboose, Cupola, Steel, C&O $22.95 2017-07-01 131389
Atlas NSE ATL 14-27 Central Vermont 74924 Caboose, Cupola, Steel, C&O $24.50 2014-01-01 106381
Atlas NSE ATL XX-XX Bethlehem Steel 4 Caboose, Cupola, Steel, C&O $23.49 124832